Probability
0 0 0 0 0 0 0 0 0 0 0 0 0 0 0 0 0 0 0 0 0 0 0 1 1 2 2 1 1 2 2 2 3 1 0 0 1 2 2 1 0 0 0
0 0 0 0 0 0 0 0 0 0 0 0 0 0 0 0 0 0 0 0 0 0 1 2 3 3 2 1 1 2 1 2 3 2 0 0 0 1 1 0 0 0 1
0 0 0 0 0 0 0 0 0 0 0 0 0 0 0 0 0 0 0 0 0 0 1 4 5 4 3 2 1 1 1 2 2 1 0 0 0 0 0 0 0 0 1
0 0 0 0 0 0 0 0 0 0 0 0 0 0 0 0 0 0 0 0 0 0 1 3 4 3 3 3 2 1 1 1 1 0 0 0 0 0 0 0 0 0 1
0 0 0 0 0 0 0 0 0 0 0 0 0 0 0 0 0 0 0 0 0 0 0 1 1 2 2 3 2 2 1 0 0 0 0 0 0 0 0 0 0 0 0
0 0 0 0 0 0 0 0 0 0 0 0 0 0 0 0 0 0 0 0 0 0 0 0 0 1 1 1 1 1 0 0 0 0 0 0 0 0 0 0 0 0 0
0 0 0 0 0 0 0 0 0 0 0 0 0 0 0 0 0 0 0 0 0 0 0 0 0 0 0 0 0 0 0 0 0 0 0 0 0 0 1 0 0 0 0
0 0 0 0 0 0 0 0 0 0 0 0 0 0 0 0 0 0 0 0 0 0 0 0 0 0 0 0 0 0 0 0 0 0 0 0 0 0 0 0 0 0 0
0 0 0 0 0 0 0 0 0 0 0 0 0 0 0 0 0 0 0 0 0 0 0 0 0 0 0 0 0 0 0 0 0 0 0 0 0 0 0 0 0 0 0
0 0 0 0 0 0 0 0 0 0 0 0 0 0 0 0 0 0 0 0 0 0 0 0 0 0 0 0 0 0 0 0 0 0 0 0 0 0 0 0 0 0 0
0 0 0 0 0 0 0 0 0 0 0 0 0 0 0 0 0 0 0 0 0 0 0 0 0 0 0 0 0 0 0 0 0 0 0 0 0 0 0 0 0 0 0
0 0 0 0 0 0 0 0 0 0 0 0 0 0 0 0 0 0 0 0 0 0 0 0 0 0 0 0 0 0 0 0 0 0 0 0 0 0 0 0 0 0 0
0 0 0 0 0 0 0 0 0 0 0 0 0 0 0 0 0 0 0 0 0 0 0 0 0 0 0 0 0 0 0 0 0 0 0 0 0 0 0 0 0 0 0
0 0 0 0 0 0 0 0 0 0 0 0 0 0 0 0 0 0 0 0 0 0 0 0 0 0 0 0 0 0 0 0 0 0 0 0 0 0 0 0 0 0 0
0 0 0 0 0 0 0 0 0 0 0 0 0 0 0 0 0 0 0 0 0 0 0 0 0 0 0 0 0 0 0 0 0 0 0 0 0 0 0 0 0 0 0
0 0 0 0 0 0 0 0 0 0 0 0 0 0 0 0 0 0 0 0 0 0 0 0 0 0 0 0 0 0 0 0 0 0 0 0 0 0 0 0 0 0 0
0 0 0 0 0 0 0 0 0 0 0 0 0 0 0 0 0 0 0 0 0 0 0 0 0 0 0 0 0 0 0 0 0 0 0 0 0 0 0 0 0 0 0
0 0 0 0 0 0 0 0 0 0 0 0 0 0 0 0 0 0 0 0 0 0 0 0 0 0 0 0 0 0 0 0 0 0 0 0 0 0 0 0 0 0 0
0 0 0 0 0 0 0 0 0 0 0 0 0 0 0 0 0 0 0 0 0 0 0 0 0 0 0 0 0 0 0 0 0 0 0 0 0 0 0 0 0 0 0
0 0 0 0 0 0 0 0 0 0 0 0 0 0 0 0 0 0 0 0 0 0 0 0 0 0 0 0 0 0 0 0 0 0 0 0 0 0 0 0 0 0 0
0 0 0 0 0 0 0 0 0 0 0 0 0 0 0 0 0 0 0 0 0 0 0 0 0 0 0 0 0 0 0 0 0 0 0 0 0 0 0 0 0 0 0
0 0 0 0 0 0 0 0 0 0 0 0 0 0 0 0 0 0 0 0 0 0 0 0 0 0 0 0 0 0 0 0 0 0 0 0 0 0 0 0 0 0 0
0 0 0 0 0 0 0 0 0 0 0 0 0 0 0 0 0 0 0 0 0 0 0 0 0 0 0 0 0 0 0 0 0 0 0 0 0 0 0 0 0 0 0
0 0 0 0 0 0 0 0 0 0 0 0 0 0 0 0 0 0 1 0 0 0 0 0 0 0 0 0 0 0 0 0 0 0 0 0 0 0 0 0 0 0 0
1 1 0 0 0 0 0 0 0 0 0 0 0 0 0 0 0 0 0 0 0 0 0 0 0 0 0 0 0 0 0 0 0 0 0 0 0 0 0 0 0 0 0
2 2 1 0 0 0 0 0 0 0 0 0 0 0 0 0 0 0 0 0 0 0 0 0 0 0 0 0 0 0 0 0 0 0 0 0 0 0 0 0 0 0 0
Wind_Speed
2 2 3 2 2 2 2 2 3 4 5 5 5 6 5 5 5 5 4 9 10 11 11 10 9 9 10 10 10 11 11 10 10 10 10 9 9 9 8 7 8 8 7
3 2 3 3 2 2 2 3 4 4 4 4 5 5 5 4 4 4 4 5 9 10 10 10 10 9 10 10 11 11 11 11 11 10 10 9 9 9 9 8 8 8 8
3 3 3 3 2 2 4 3 4 3 4 4 5 5 4 4 4 3 3 3 4 8 9 11 11 11 11 11 11 11 11 12 11 11 11 10 10 10 10 10 9 9 9
5 4 3 2 3 3 3 3 3 3 3 3 3 3 3 3 4 3 3 3 3 4 6 10 11 12 11 12 12 12 12 12 12 12 12 11 11 10 10 10 10 9 9
4 4 2 2 3 3 2 3 3 3 3 2 2 3 3 3 3 4 4 4 4 4 3 6 10 11 12 12 13 13 12 12 12 12 12 12 11 10 10 10 9 9 9
4 3 2 3 3 3 3 3 3 2 2 1 2 3 2 2 3 3 4 4 4 4 4 4 4 6 11 12 12 12 12 12 12 12 12 12 11 11 10 10 9 9 9
3 3 3 3 3 3 3 3 2 2 1 1 2 2 2 2 3 2 2 3 4 3 4 4 3 3 4 10 11 11 11 12 12 12 12 11 11 10 10 10 10 10 9
3 2 3 3 3 2 3 3 2 2 1 1 1 1 1 2 2 2 2 2 3 3 4 5 4 4 4 3 7 11 11 11 11 11 11 11 11 11 10 10 10 10 9
3 3 2 2 3 3 2 2 2 1 1 1 1 1 1 1 1 1 2 2 2 2 2 3 5 5 5 4 4 7 10 10 10 10 10 10 10 10 10 10 11 10 10
2 2 2 2 2 3 3 2 2 1 1 1 1 1 1 2 2 1 1 2 3 3 3 4 4 5 5 4 5 8 9 9 10 10 10 10 9 10 10 10 10 10 10
2 1 2 2 2 2 2 2 2 2 1 1 1 1 2 1 1 2 1 1 1 1 2 3 3 3 4 4 3 6 8 8 8 9 9 10 10 10 10 10 10 10 10
1 1 2 1 2 2 2 2 2 2 1 2 2 2 1 1 1 1 1 0 1 0 2 2 2 2 3 3 5 7 7 7 7 8 8 8 9 9 10 10 10 10 10
1 1 2 1 1 2 2 2 2 2 2 2 2 1 1 1 1 1 2 1 1 0 1 1 2 2 3 3 3 5 6 6 6 7 7 7 8 8 9 9 10 10 10
2 2 2 2 2 2 2 2 1 1 1 2 2 1 1 1 1 1 1 1 1 1 1 1 1 2 2 2 3 4 3 5 5 6 7 7 7 7 8 8 9 9 9
3 3 3 3 3 2 2 2 1 1 1 2 1 1 1 1 1 1 1 2 2 1 1 0 1 1 2 2 3 2 3 5 6 6 6 6 6 6 7 7 7 8 8
2 3 3 3 3 3 2 2 1 2 2 1 1 2 1 1 1 1 1 1 1 2 1 0 1 1 1 2 3 2 3 6 6 5 6 6 6 6 7 7 7 7 8
2 3 3 3 3 3 3 2 2 1 1 1 1 2 1 2 1 1 1 1 1 2 2 1 1 1 2 2 1 1 2 3 3 5 5 6 6 7 7 8 8 8 9
1 2 2 2 2 3 3 3 2 2 1 1 1 2 1 2 2 1 1 1 1 1 2 1 1 2 2 1 1 1 2 3 2 4 5 6 6 6 7 8 8 9 9
1 1 2 2 2 2 2 2 2 2 2 1 2 2 2 3 2 1 1 1 1 2 2 2 1 1 1 1 2 2 2 1 2 4 5 4 5 5 7 7 8 9 9
1 2 2 2 2 2 1 1 2 2 2 2 2 3 3 3 2 1 1 1 1 2 2 2 1 1 1 1 2 1 1 1 1 2 3 3 4 5 6 7 7 8 8
1 2 2 2 2 2 2 2 2 2 2 2 2 3 4 6 6 4 3 2 2 1 1 2 1 1 1 2 1 1 1 1 1 1 1 1 2 2 2 4 5 6 7
1 2 2 2 2 2 4 4 2 1 1 2 2 2 3 4 5 6 6 7 6 3 2 2 1 1 0 0 1 1 0 1 1 1 1 1 2 1 1 2 3 5 5
2 2 2 2 2 2 3 3 3 1 1 1 1 2 2 3 3 2 3 4 5 5 4 2 2 1 0 1 0 1 1 0 1 0 2 1 1 1 0 2 4 3 3
3 2 2 2 2 2 3 3 3 1 0 1 1 2 2 1 2 3 3 3 2 2 2 2 1 1 1 1 0 1 1 0 1 1 2 0 1 1 1 1 2 2 2
3 3 3 3 3 2 3 4 4 2 1 0 1 2 2 2 3 4 3 2 2 1 2 3 3 2 4 5 4 2 2 2 1 1 1 1 0 1 1 0 0 1 1
3 3 3 3 3 2 4 5 6 2 2 1 1 1 3 3 3 4 2 1 1 1 2 2 1 1 1 2 3 1 1 1 0 1 1 1 0 1 1 1 1 1 1
Wind_Direction
71 85 101 93 82 86 87 66 56 56 53 49 55 59 59 63 73 75 69 68 66 62 59 55 53 53 56 58 57 57 55 54 55 55 52 52 51 52 54 56 55 52 51
83 66 82 78 77 69 71 75 70 62 63 55 55 56 50 55 66 79 91 74 69 66 61 56 56 61 64 64 61 59 57 55 54 52 51 52 53 55 54 56 58 53 52
85 78 75 78 72 70 69 64 70 66 73 67 61 55 50 52 60 63 78 96 83 71 67 62 62 65 68 67 64 61 59 56 53 51 50 52 56 57 56 55 55 53 51
85 72 63 74 75 68 73 77 61 68 66 61 58 53 54 46 54 58 65 75 85 84 72 70 67 68 67 67 65 62 60 57 55 52 49 51 56 56 55 55 53 51 50
81 86 68 64 76 73 64 74 61 63 74 71 84 74 58 49 37 46 47 58 70 74 82 78 72 69 66 66 64 61 59 58 56 54 51 50 52 52 53 54 53 53 52
66 85 96 76 71 75 73 81 85 78 88 85 79 81 80 81 49 42 36 44 56 67 77 85 79 68 66 65 62 60 57 56 56 55 52 51 51 51 54 55 54 54 54
63 76 72 74 72 76 77 86 72 76 67 75 77 65 58 76 67 58 44 46 48 50 70 80 77 72 68 62 56 58 57 54 54 53 52 51 51 51 51 52 52 52 52
56 79 98 99 95 88 71 74 74 44 36 60 84 86 68 35 8 67 60 58 63 49 51 71 76 77 77 68 58 57 51 51 51 51 51 51 50 49 50 51 50 48 49
42 42 63 98 118 122 111 102 99 93 38 345 46 81 96 104 327 21 61 66 62 61 56 60 68 70 74 69 68 55 52 45 47 48 49 50 49 50 49 48 47 46 49
66 31 52 79 102 106 113 125 113 95 84 5 355 31 71 116 133 51 5 50 67 68 66 64 63 67 72 73 71 66 57 45 42 44 46 47 46 48 48 46 46 47 52
78 47 61 62 81 104 113 104 97 79 84 61 33 28 29 22 38 122 98 8 47 60 81 80 77 78 83 84 82 71 63 50 43 43 43 42 42 42 42 43 44 46 50
107 104 99 95 88 96 103 102 104 100 77 50 42 47 70 62 4 62 107 127 109 122 92 86 81 81 89 86 82 80 68 55 46 44 42 39 38 39 39 41 42 43 46
142 156 131 124 107 100 98 92 98 107 108 90 69 45 50 53 37 51 89 78 63 137 93 73 90 92 93 93 93 90 72 61 50 47 45 42 41 40 41 40 40 40 40
149 140 148 140 117 105 104 98 85 86 96 100 98 90 66 38 41 70 108 101 52 17 77 95 79 97 98 102 107 108 83 74 61 55 52 49 47 45 43 43 40 38 36
139 142 144 130 125 121 112 107 98 94 71 69 78 78 86 79 58 42 67 114 134 108 24 82 90 96 111 105 114 120 107 86 73 63 58 52 49 47 45 43 40 37 35
138 147 156 141 136 131 116 99 85 93 91 90 87 64 48 77 66 49 36 30 91 129 123 19 123 131 94 101 110 118 116 102 89 78 69 63 58 52 49 47 44 42 39
158 162 157 147 150 144 130 122 129 120 126 128 118 108 81 71 61 38 43 42 44 87 112 352 52 91 89 77 79 115 129 118 108 95 84 76 70 61 56 54 51 48 44
162 152 139 134 138 134 138 144 147 142 134 114 94 91 96 81 59 57 58 51 64 92 116 105 20 42 59 75 71 53 93 112 122 113 105 96 87 77 67 62 56 52 49
154 137 120 117 106 105 119 137 146 139 123 109 98 80 75 85 69 52 51 46 54 72 93 111 66 33 34 39 46 26 50 55 111 115 113 107 103 93 82 72 61 54 49
153 149 133 127 118 111 105 108 106 106 96 89 87 78 63 68 67 67 64 48 74 77 82 100 98 42 30 11 49 21 4 4 46 65 73 100 99 101 91 79 66 55 47
143 125 118 114 109 106 72 75 93 109 99 86 82 88 84 80 69 61 59 46 51 72 83 92 95 60 32 31 356 306 338 326 41 50 56 79 93 85 93 78 66 54 47
116 97 107 105 95 93 89 83 75 81 113 131 128 123 119 103 96 85 74 70 70 72 77 91 87 87 17 323 308 328 4 22 332 348 60 1 87 86 98 110 81 66 49
135 138 136 117 115 110 112 100 90 76 91 143 141 137 121 123 129 133 101 79 61 58 70 101 85 54 286 299 313 326 325 283 204 257 80 357 31 52 49 119 111 80 51
154 151 145 140 131 127 137 131 127 122 22 48 86 111 124 136 122 130 128 111 98 69 87 98 119 80 35 11 78 194 230 16 85 49 76 68 347 345 346 124 123 71 38
162 156 162 156 161 170 165 160 141 138 140 85 68 78 95 104 99 115 119 125 131 149 118 118 126 102 55 40 42 48 35 51 344 317 38 93 309 331 320 81 18 4 346
156 152 156 164 170 176 169 170 161 159 168 165 120 87 86 97 104 125 130 139 165 188 135 124 108 42 28 21 31 63 118 115 225 291 308 105 316 28 338 317 330 318 318